Time,TemperatureF,DewpointF,PressureIn,WindDirection,WindDirectionDegrees,WindSpeedMPH,WindSpeedGustMPH,Humidity,HourlyPrecipIn,Conditions,Clouds,dailyrainin,SoftwareType,DateUTC
2013-05-31 00:03:00,83.9,64.0,30.00,West,278,3.0,6.0,52,0.00,,,0.00,weatherlink.com 1.10,2013-05-31 04:03:00,
2013-05-31 00:18:00,83.4,64.0,30.00,South,174,3.0,6.0,53,0.00,,,0.00,weatherlink.com 1.10,2013-05-31 04:18:00,
2013-05-31 00:33:00,82.7,64.0,30.00,SSE,163,2.0,7.0,54,0.00,,,0.00,weatherlink.com 1.10,2013-05-31 04:33:00,
2013-05-31 00:48:00,82.1,65.0,30.01,South,177,1.0,7.0,56,0.00,,,0.00,weatherlink.com 1.10,2013-05-31 04:48:00,
2013-05-31 01:03:00,81.9,65.0,30.01,SE,132,3.0,5.0,56,0.00,,,0.00,weatherlink.com 1.10,2013-05-31 05:03:00,
2013-05-31 01:18:00,81.6,65.0,30.01,SSE,160,2.0,7.0,57,0.00,,,0.00,weatherlink.com 1.10,2013-05-31 05:18:00,
2013-05-31 01:33:00,81.3,65.0,30.01,SE,129,2.0,7.0,58,0.00,,,0.00,weatherlink.com 1.10,2013-05-31 05:33:00,
2013-05-31 01:49:00,81.0,65.0,30.01,SE,127,3.0,5.0,58,0.00,,,0.00,weatherlink.com 1.10,2013-05-31 05:49:00,
2013-05-31 02:04:00,80.8,65.0,30.01,SW,216,1.0,6.0,59,0.00,,,0.00,weatherlink.com 1.10,2013-05-31 06:04:00,
2013-05-31 02:19:00,80.5,65.0,30.01,ESE,121,3.0,9.0,59,0.00,,,0.00,weatherlink.com 1.10,2013-05-31 06:19:00,
2013-05-31 02:34:00,80.3,65.0,30.01,SE,142,2.0,6.0,60,0.00,,,0.00,weatherlink.com 1.10,2013-05-31 06:34:00,
2013-05-31 02:49:00,80.0,65.0,30.01,NNE,15,0.0,5.0,60,0.00,,,0.00,weatherlink.com 1.10,2013-05-31 06:49:00,
2013-05-31 03:04:00,79.7,65.0,30.01,SE,127,2.0,6.0,61,0.00,,,0.00,weatherlink.com 1.10,2013-05-31 07:04:00,
2013-05-31 03:19:00,79.3,65.0,30.01,WNW,301,0.0,5.0,62,0.00,,,0.00,weatherlink.com 1.10,2013-05-31 07:19:00,
2013-05-31 03:34:00,79.0,65.0,30.01,South,181,1.0,5.0,63,0.00,,,0.00,weatherlink.com 1.10,2013-05-31 07:34:00,
2013-05-31 03:49:00,78.8,65.0,30.00,SSE,167,1.0,4.0,63,0.00,,,0.00,weatherlink.com 1.10,2013-05-31 07:49:00,
2013-05-31 04:04:00,78.4,65.0,30.00,SSE,158,0.0,4.0,64,0.00,,,0.00,weatherlink.com 1.10,2013-05-31 08:04:00,
2013-05-31 04:19:00,78.1,65.0,30.01,SSE,156,0.0,3.0,65,0.00,,,0.00,weatherlink.com 1.10,2013-05-31 08:19:00,
2013-05-31 04:34:00,77.8,65.0,30.01,SSE,160,2.0,4.0,65,0.00,,,0.00,weatherlink.com 1.10,2013-05-31 08:34:00,
2013-05-31 04:49:00,77.7,65.0,30.00,SSE,158,1.0,4.0,66,0.00,,,0.00,weatherlink.com 1.10,2013-05-31 08:49:00,
2013-05-31 05:04:00,77.5,65.0,30.01,SSE,155,1.0,4.0,66,0.00,,,0.00,weatherlink.com 1.10,2013-05-31 09:04:00,
2013-05-31 05:19:00,77.2,65.0,30.01,South,170,1.0,3.0,67,0.00,,,0.00,weatherlink.com 1.10,2013-05-31 09:19:00,
2013-05-31 05:34:00,76.8,65.0,30.01,SSE,159,3.0,5.0,68,0.00,,,0.00,weatherlink.com 1.10,2013-05-31 09:34:00,
2013-05-31 05:49:00,76.6,65.0,30.02,SSE,167,2.0,4.0,68,0.00,,,0.00,weatherlink.com 1.10,2013-05-31 09:49:00,
2013-05-31 06:04:00,84.8,66.0,30.02,SSE,152,3.0,4.0,54,0.00,,,0.00,weatherlink.com 1.10,2013-05-31 10:04:00,
2013-05-31 06:19:00,86.2,66.0,30.02,SE,146,2.0,4.0,51,0.00,,,0.00,weatherlink.com 1.10,2013-05-31 10:19:00,
2013-05-31 06:34:00,86.2,66.0,30.03,SE,142,3.0,5.0,51,0.00,,,0.00,weatherlink.com 1.10,2013-05-31 10:34:00,
2013-05-31 06:49:00,86.1,66.0,30.03,SSE,163,2.0,5.0,51,0.00,,,0.00,weatherlink.com 1.10,2013-05-31 10:49:00,
2013-05-31 07:04:00,86.5,66.0,30.03,SE,145,3.0,3.0,51,0.00,,,0.00,weatherlink.com 1.10,2013-05-31 11:04:00,
2013-05-31 07:19:00,83.9,66.0,30.03,SSE,158,3.0,5.0,56,0.00,,,0.00,weatherlink.com 1.10,2013-05-31 11:19:00,
2013-05-31 07:34:00,85.4,66.0,30.04,SSW,208,0.0,3.0,52,0.00,,,0.00,weatherlink.com 1.10,2013-05-31 11:34:00,
2013-05-31 07:49:00,87.7,67.0,30.04,SE,131,1.0,4.0,51,0.00,,,0.00,weatherlink.com 1.10,2013-05-31 11:49:00,
2013-05-31 08:04:00,85.3,66.0,30.04,SSE,160,2.0,5.0,52,0.00,,,0.00,weatherlink.com 1.10,2013-05-31 12:04:00,
2013-05-31 08:19:00,90.1,67.0,30.04,SSE,155,3.0,4.0,47,0.00,,,0.00,weatherlink.com 1.10,2013-05-31 12:19:00,
2013-05-31 08:34:00,84.9,66.0,30.04,SSE,163,3.0,4.0,54,0.00,,,0.00,weatherlink.com 1.10,2013-05-31 12:34:00,
2013-05-31 08:49:00,91.1,68.0,30.04,SSE,166,4.0,4.0,46,0.00,,,0.00,weatherlink.com 1.10,2013-05-31 12:49:00,
2013-05-31 09:04:00,89.3,68.0,30.04,South,180,3.0,4.0,49,0.00,,,0.00,weatherlink.com 1.10,2013-05-31 13:04:00,
2013-05-31 09:19:00,93.4,67.0,30.03,South,183,0.0,3.0,42,0.00,,,0.00,weatherlink.com 1.10,2013-05-31 13:19:00,
2013-05-31 09:34:00,94.9,68.0,30.03,SSE,152,2.0,5.0,41,0.00,,,0.00,weatherlink.com 1.10,2013-05-31 13:34:00,
2013-05-31 09:49:00,94.4,67.0,30.02,South,183,2.0,3.0,41,0.00,,,0.00,weatherlink.com 1.10,2013-05-31 13:49:00,
2013-05-31 10:04:00,95.0,67.0,30.02,SSE,155,1.0,4.0,40,0.00,,,0.00,weatherlink.com 1.10,2013-05-31 14:04:00,
2013-05-31 10:19:00,93.8,67.0,30.02,SE,133,1.0,3.0,41,0.00,,,0.00,weatherlink.com 1.10,2013-05-31 14:19:00,
2013-05-31 10:35:00,98.4,68.0,30.01,SSE,162,3.0,4.0,37,0.00,,,0.00,weatherlink.com 1.10,2013-05-31 14:35:00,
2013-05-31 10:50:00,94.6,67.0,30.02,SSE,148,2.0,5.0,41,0.00,,,0.00,weatherlink.com 1.10,2013-05-31 14:50:00,
2013-05-31 11:05:00,100.5,67.0,30.01,SE,137,2.0,4.0,33,0.00,,,0.00,weatherlink.com 1.10,2013-05-31 15:05:00,
2013-05-31 11:20:00,96.3,67.0,30.01,SSE,158,3.0,5.0,38,0.00,,,0.00,weatherlink.com 1.10,2013-05-31 15:20:00,
2013-05-31 11:35:00,101.5,66.0,30.00,SSE,165,1.0,4.0,31,0.00,,,0.00,weatherlink.com 1.10,2013-05-31 15:35:00,
2013-05-31 11:50:00,98.1,66.0,30.00,WNW,283,1.0,2.0,35,0.00,,,0.00,weatherlink.com 1.10,2013-05-31 15:50:00,
2013-05-31 12:05:00,103.0,66.0,30.00,SE,146,2.0,7.0,30,0.00,,,0.00,weatherlink.com 1.10,2013-05-31 16:05:00,
2013-05-31 12:20:00,95.8,67.0,30.00,SSE,156,4.0,9.0,39,0.00,,,0.00,weatherlink.com 1.10,2013-05-31 16:20:00,
2013-05-31 12:35:00,100.4,67.0,30.00,SW,215,3.0,7.0,34,0.00,,,0.00,weatherlink.com 1.10,2013-05-31 16:35:00,
2013-05-31 12:50:00,97.8,66.0,29.99,South,179,2.0,7.0,35,0.00,,,0.00,weatherlink.com 1.10,2013-05-31 16:50:00,
2013-05-31 13:05:00,100.4,66.0,29.99,WSW,238,3.0,8.0,32,0.00,,,0.00,weatherlink.com 1.10,2013-05-31 17:05:00,
2013-05-31 13:20:00,98.8,64.0,29.99,WSW,239,3.0,10.0,32,0.00,,,0.00,weatherlink.com 1.10,2013-05-31 17:20:00,
2013-05-31 13:35:00,98.5,66.0,29.98,SE,141,3.0,7.0,34,0.00,,,0.00,weatherlink.com 1.10,2013-05-31 17:35:00,
2013-05-31 13:50:00,98.6,64.0,29.98,WSW,250,6.0,10.0,32,0.00,,,0.00,weatherlink.com 1.10,2013-05-31 17:50:00,
2013-05-31 14:05:00,96.4,66.0,29.98,SSW,207,2.0,7.0,37,0.00,,,0.00,weatherlink.com 1.10,2013-05-31 18:05:00,
2013-05-31 14:20:00,97.3,66.0,29.97,South,187,3.0,7.0,36,0.00,,,0.00,weatherlink.com 1.10,2013-05-31 18:20:00,
2013-05-31 14:35:00,94.8,66.0,29.97,SSE,152,2.0,8.0,39,0.00,,,0.00,weatherlink.com 1.10,2013-05-31 18:35:00,
2013-05-31 14:50:00,98.2,66.0,29.97,SSE,148,2.0,5.0,35,0.00,,,0.00,weatherlink.com 1.10,2013-05-31 18:50:00,
2013-05-31 15:05:00,93.3,65.0,29.97,South,181,2.0,5.0,39,0.00,,,0.00,weatherlink.com 1.10,2013-05-31 19:05:00,
2013-05-31 15:20:00,93.8,65.0,29.96,WSW,243,3.0,5.0,39,0.00,,,0.00,weatherlink.com 1.10,2013-05-31 19:20:00,
2013-05-31 15:35:00,94.7,65.0,29.96,ESE,120,3.0,6.0,37,0.00,,,0.00,weatherlink.com 1.10,2013-05-31 19:35:00,
2013-05-31 15:50:00,95.4,65.0,29.95,SSE,168,2.0,4.0,37,0.00,,,0.00,weatherlink.com 1.10,2013-05-31 19:50:00,
2013-05-31 16:05:00,96.5,65.0,29.95,NW,323,2.0,6.0,35,0.00,,,0.00,weatherlink.com 1.10,2013-05-31 20:05:00,
2013-05-31 16:20:00,91.8,63.0,29.95,SSE,165,3.0,5.0,39,0.00,,,0.00,weatherlink.com 1.10,2013-05-31 20:20:00,
2013-05-31 16:35:00,95.5,64.0,29.94,SE,139,2.0,6.0,35,0.00,,,0.00,weatherlink.com 1.10,2013-05-31 20:35:00,
2013-05-31 16:50:00,92.9,62.0,29.93,SSE,162,2.0,5.0,36,0.00,,,0.00,weatherlink.com 1.10,2013-05-31 20:50:00,
2013-05-31 17:05:00,95.5,61.0,29.93,SE,146,4.0,9.0,32,0.00,,,0.00,weatherlink.com 1.10,2013-05-31 21:05:00,
2013-05-31 17:20:00,92.9,62.0,29.93,SSE,164,1.0,5.0,36,0.00,,,0.00,weatherlink.com 1.10,2013-05-31 21:20:00,
2013-05-31 17:35:00,97.1,64.0,29.92,SSE,153,2.0,4.0,33,0.00,,,0.00,weatherlink.com 1.10,2013-05-31 21:35:00,
2013-05-31 17:50:00,95.9,64.0,29.92,South,174,2.0,5.0,35,0.00,,,0.00,weatherlink.com 1.10,2013-05-31 21:50:00,
2013-05-31 18:05:00,94.1,65.0,29.91,SE,146,2.0,4.0,38,0.00,,,0.00,weatherlink.com 1.10,2013-05-31 22:05:00,
2013-05-31 18:20:00,95.6,65.0,29.91,SSE,159,0.0,4.0,36,0.00,,,0.00,weatherlink.com 1.10,2013-05-31 22:20:00,
2013-05-31 18:35:00,92.7,65.0,29.91,South,190,2.0,4.0,40,0.00,,,0.00,weatherlink.com 1.10,2013-05-31 22:35:00,
2013-05-31 18:50:00,93.4,63.0,29.91,SSE,166,0.0,4.0,37,0.00,,,0.00,weatherlink.com 1.10,2013-05-31 22:50:00,
2013-05-31 19:05:00,91.3,64.0,29.91,South,191,2.0,4.0,40,0.00,,,0.00,weatherlink.com 1.10,2013-05-31 23:05:00,
2013-05-31 19:20:00,90.2,63.0,29.91,West,278,1.0,3.0,40,0.00,,,0.00,weatherlink.com 1.10,2013-05-31 23:20:00,
2013-05-31 19:35:00,87.2,63.0,29.91,SSE,168,2.0,4.0,44,0.00,,,0.00,weatherlink.com 1.10,2013-05-31 23:35:00,
2013-05-31 19:50:00,88.7,62.0,29.91,SW,214,0.0,4.0,41,0.00,,,0.00,weatherlink.com 1.10,2013-05-31 23:50:00,
2013-05-31 20:05:00,84.6,61.0,29.90,WSW,248,0.0,4.0,45,0.00,,,0.00,weatherlink.com 1.10,2013-06-01 00:05:00,
2013-05-31 20:20:00,89.9,61.0,29.91,SW,226,1.0,4.0,38,0.00,,,0.00,weatherlink.com 1.10,2013-06-01 00:20:00,
2013-05-31 20:35:00,85.0,61.0,29.91,SSW,202,4.0,5.0,44,0.00,,,0.00,weatherlink.com 1.10,2013-06-01 00:35:00,
2013-05-31 20:51:00,84.0,61.0,29.91,South,186,0.0,6.0,46,0.00,,,0.00,weatherlink.com 1.10,2013-06-01 00:51:00,
2013-05-31 21:05:00,83.0,62.0,29.91,WSW,240,0.0,4.0,49,0.00,,,0.00,weatherlink.com 1.10,2013-06-01 01:05:00,
2013-05-31 21:20:00,82.3,62.0,29.92,SSW,203,1.0,4.0,51,0.00,,,0.00,weatherlink.com 1.10,2013-06-01 01:20:00,
2013-05-31 21:35:00,82.3,62.0,29.93,SSE,162,1.0,6.0,51,0.00,,,0.00,weatherlink.com 1.10,2013-06-01 01:35:00,
2013-05-31 21:50:00,82.2,63.0,29.93,South,190,0.0,5.0,52,0.00,,,0.00,weatherlink.com 1.10,2013-06-01 01:50:00,
2013-05-31 22:05:00,81.8,63.0,29.93,SSE,163,1.0,3.0,53,0.00,,,0.00,weatherlink.com 1.10,2013-06-01 02:05:00,
2013-05-31 22:20:00,81.6,63.0,29.94,SW,214,1.0,4.0,53,0.00,,,0.00,weatherlink.com 1.10,2013-06-01 02:20:00,
2013-05-31 22:35:00,82.0,63.0,29.94,SSW,199,2.0,4.0,52,0.00,,,0.00,weatherlink.com 1.10,2013-06-01 02:35:00,
2013-05-31 22:50:00,83.0,62.0,29.94,SSW,204,2.0,5.0,50,0.00,,,0.00,weatherlink.com 1.10,2013-06-01 02:50:00,
2013-05-31 23:05:00,83.0,62.0,29.94,SE,146,2.0,6.0,49,0.00,,,0.00,weatherlink.com 1.10,2013-06-01 03:05:00,
2013-05-31 23:20:00,82.8,62.0,29.94,SSE,162,2.0,6.0,49,0.00,,,0.00,weatherlink.com 1.10,2013-06-01 03:20:00,
2013-05-31 23:36:00,82.5,62.0,29.93,South,169,2.0,5.0,50,0.00,,,0.00,weatherlink.com 1.10,2013-06-01 03:36:00,
2013-05-31 23:51:00,82.1,63.0,29.93,SE,146,3.0,6.0,52,0.00,,,0.00,weatherlink.com 1.10,2013-06-01 03:51:00,